Weather Roundup
Issued by NWS

Home | Current Version | Previous Version | Text Only | Print | Product List | Glossary On
Versions: 1 2 3 4 5 6 7 8 9 10 11 12 13 14 15 16 17 18 19 20 21 22 23 24 25 26 27 28 29 30 31 32 33 34 35 36 37 38 39 40 41 42 43 44 45 46 47 48 49 50
257
NZUS93 KARX 262159
HRRWXR

CURRENT HOURLY OBSERVATIONS ACROSS
MUCH OF THE UPPER MISSISSIPPI VALLEY
NATIONAL WEATHER SERVICE LA CROSSE WI
500 PM CDT MON JUN 26 2017


...SOUTHEAST MINNESOTA...


CITY           SKY/WX    TMP DP  RH WIND       PRES   REMARKS
ROCHESTER      MOSUNNY   67  42  40 N12       30.12F
ROCHESTER/MAYO FAIR      67  39  35 NW5G16    30.12F
WINONA         SUNNY     70  45  40 NW7       30.10F
AUSTIN         MOSUNNY   66  43  42 NW5       30.12F
ALBERT LEA     MOSUNNY   68  37  32 N8        30.13F HAZE
DODGE CENTER   MOSUNNY   66  41  39 N8        30.12F
PRESTON        MOSUNNY   64  44  47 NW10      30.12F
OWATONNA       MOSUNNY   70  43  37 NW6       30.13F
FARIBAULT      PTSUNNY   70  39  32 W7        30.13F
$$

...ELSEWHERE IN MINNESOTA...


CITY           SKY/WX    TMP DP  RH WIND       PRES   REMARKS
MINNEAPOLIS    PTSUNNY   71  43  36 N10       30.11F
INTNL FALLS    MOSUNNY   69  44  40 NW16G24   30.04F
DULUTH         MOSUNNY   62  50  64 NW12      30.07F
RED WING       PTSUNNY   72  37  28 NW8       30.09F
REDWOOD FALLS  MOSUNNY   71  40  32 N8        30.14F
MANKATO        SUNNY     68  40  35 NW6       30.14F
WORTHINGTON    SUNNY     68  40  35 N14       30.17F
FAIRMONT       MOSUNNY   69  41  36 N10       30.15F
$$

...SOUTHWEST WISCONSIN...


CITY           SKY/WX    TMP DP  RH WIND       PRES   REMARKS
LA CROSSE      MOSUNNY   74  44  34 NW9       30.08F
PRAIRIE DU CHI PTSUNNY   67  40  37 N7        30.09F
BOSCOBEL       MOSUNNY   69  42  37 NW13      30.09F
LONE ROCK      NOT AVBL
PLATTEVILLE    SUNNY     69  42  38 N15G24    30.09F
FORT MC COY    MOSUNNY   65  44  47 NW10      30.10S
MAUSTON-NEW LI CLOUDY    64  46  52 NW10      30.08F
VIROQUA        MOCLDY    65  47  51 N10       30.10F
WIS DELLS      CLOUDY    62  44  52 NW6       30.08F
$$

...ELSEWHERE IN WISCONSIN...


CITY           SKY/WX    TMP DP  RH WIND       PRES   REMARKS
MILWAUKEE      PTSUNNY   66  44  45 W21G31    30.03F
MADISON        PTSUNNY   61  46  57 NW10      30.07S
GREEN BAY      LGT RAIN  57  55  93 NW10      30.03R
EAU CLAIRE     RAIN      56  50  80 NW10G26   30.10R
BLACK RVR FLS  MOCLDY    71  39  31 N7        30.07F
MEDFORD        MOSUNNY   63  44  49 NW10      30.07S
WAUSAU         PTSUNNY   62  41  46 N13G21    30.05S
WIS RAPIDS     MOSUNNY   66  45  46 N15       30.08F
MARSHFIELD     SUNNY     65  45  48 N9        30.06F
RICE LAKE      MOSUNNY   63  49  60 NW5       30.12F HAZE
$$

...NORTHEAST IOWA...


CITY           SKY/WX    TMP DP  RH WIND       PRES   REMARKS
WATERLOO       SUNNY     71  41  33 N14G23    30.09F
DUBUQUE        MOSUNNY   69  43  38 N13G22    30.09F
DECORAH        SUNNY     66  43  42 NW12      30.10F
MASON CITY     MOSUNNY   69  40  34 N13       30.14F
CHARLES CITY   MOSUNNY   68  39  34 NE13      30.12F
OELWEIN        SUNNY     68  43  40 N16G22    30.11F
$$

...ELSEWHERE IN IOWA...


CITY           SKY/WX    TMP DP  RH WIND       PRES   REMARKS
DES MOINES     MOSUNNY   75  48  38 VRB5      30.10F
IOWA CITY      SUNNY     75  45  34 N8        30.09F
FORT DODGE     SUNNY     72  41  33 N9        30.14F
MARSHALLTOWN   SUNNY     72  42  34 N9        30.10F
CEDAR RAPIDS   MOSUNNY   71  44  37 N14G21    30.09S
$$

...NORTHERN ILLINOIS...


CITY           SKY/WX    TMP DP  RH WIND       PRES   REMARKS
CHICAGO-OHARE  PTSUNNY   71  41  33 NW16G28   30.02F
CHICAGO-MIDWAY PTSUNNY   70  42  36 NW21G26   30.02F
MOLINE         MOSUNNY   74  45  35 NW15G29   30.06F
ROCKFORD       PTSUNNY   69  44  40 NW12G22   30.06F
PEORIA         LGT RAIN  58  53  84 CALM      30.11S
$$

NOTE: "FAIR" INDICATES FEW OR NO CLOUDS BELOW 12,000 FEET WITH NO
SIGNIFICANT WEATHER AND/OR OBSTRUCTIONS TO VISIBILITY. WIND
SPEEDS ARE IN MILES-PER-HOUR.




USA.gov is the U.S. government's official web portal to all federal, state and local government web resources and services.